Regional Weather Roundup
Issued by NWS

Home | Current Version | Previous Version | Text Only | Print | Product List | Glossary Off
Versions: 1 2 3 4 5 6 7 8 9 10 11 12 13 14 15 16 17 18 19 20 21 22 23 24 25 26 27 28 29 30 31 32 33 34 35 36 37 38 39 40 41 42 43 44 45 46 47 48 49 50

000
ASUS43 KLSX 291407
RWRMO

WEATHER SUMMARY FOR MISSOURI
NATIONAL WEATHER SERVICE SPRINGFIELD MO
900 AM CDT SUN MAY 29 2016

NOTE: "FAIR" INDICATES FEW OR NO CLOUDS BELOW 12,000 FEET WITH NO
       SIGNIFICANT WEATHER AND/OR OBSTRUCTIONS TO VISIBILITY.
       CURRENT SKY AND/OR WEATHER CONDITIONS ARE NOT AVAILABLE FOR
       CHILLICOTHE AND FARMINGTON.

MOZ001>031-035>038-043-044-053-054-291500-
...NORTHERN AND WESTERN MISSOURI...

CITY           SKY/WX    TMP DP  RH WIND       PRES   REMARKS
KANSAS CTY INT SUNNY     72  62  71 NW6       30.11R
KANSAS C DTWN  SUNNY     74  63  68 CALM      30.10R
LEE`S SUMMIT   SUNNY     73  62  68 SW6       30.11R
ST JOSEPH      SUNNY     69  61  75 S6        30.10R
CHILLICOTHE      N/A     72  63  73 VRB6      30.11R
KIRKSVILLE     SUNNY     70  61  73 W8        30.11R

$$
MOZ066>068-077>081-088>096-101>105-291500-
...SOUTHWEST MISSOURI...

CITY           SKY/WX    TMP DP  RH WIND       PRES   REMARKS
SPRINGFIELD    SUNNY     74  67  78 W9        30.15R
JOPLIN         MOSUNNY   75  70  84 SW7       30.15R
BRANSON        CLOUDY    72  66  83 CALM      30.17R

$$
MOZ032>034-039>042-045>050-055>058-069>072-291500-
...CENTRAL MISSOURI...

CITY           SKY/WX    TMP DP  RH WIND       PRES   REMARKS
COLUMBIA       SUNNY     75  64  68 W6        30.11R
JEFFERSON CITY SUNNY     73  66  78 CALM      30.10R
ROLLA          SUNNY     72  66  81 W6        30.12R
SEDALIA        SUNNY     76  65  68 W5        30.12R
WHITEMAN AFB   SUNNY     74  65  74 W6        30.10R
WARRENSBURG    SUNNY     72  63  73 SW3       30.10R

$$
MOZ051-052-059>065-291500-
...EAST CENTRAL MISSOURI...

CITY           SKY/WX    TMP DP  RH WIND       PRES   REMARKS
ST LOUIS INTL  MOSUNNY   77  64  64 W6        30.10R
SPIRIT OF STL  MOSUNNY   76  66  71 W6        30.09R
ST CHARLES     SUNNY     74  65  73 W5        30.09R

$$
MOZ072>076-082>087-097>100-106>115-291500-
...SOUTH CENTRAL AND SOUTHEAST MISSOURI...

CITY           SKY/WX    TMP DP  RH WIND       PRES   REMARKS
CAPE GIRARDEAU MOSUNNY   73  69  87 W6        30.10R
FARMINGTON     SUNNY     75  66  73 W5        30.13R
POPLAR BLUFF   SUNNY     75  68  78 NW3       30.10S
WEST PLAINS    SUNNY     76  65  68 VRB5      30.16R

$$



USA.gov is the U.S. government's official web portal to all federal, state and local government web resources and services.